Terminal Aerodrome Forecast
Issued by NWS

Home | Current Version | Previous Version | Text Only | Print | Product List | Glossary Off
Versions: 1 2 3 4 5 6 7 8 9 10 11 12

000
FTUS43 KIWX 211121
TAFSBN
TAF
KSBN 211121Z 2112/2212 30012KT P6SM SCT030 OVC035
      TEMPO 2112/2116 OVC030
     FM211900 33013KT P6SM SCT025 BKN035
     FM220000 02005KT P6SM SCT200=

USA.gov is the U.S. government's official web portal to all federal, state and local government web resources and services.